User: anonymous   Login
Location: Unspecified
(0.0000°N, 0.0000°E)
Time: 01:46:20
(UTC+02:00)
Language:

Timation 2 Rocket - Orbit

View from above orbital plane
View from above orbital plane
View from above satellite
View from above satellite

Ground track
Ground track

The orbit data is extracted from the following two-line orbital elements,

1 04159U 69082AB  17228.57820637 -.00000027  00000-0  24345-4 0  9994
2 04159  69.9629  32.1944 0115343  13.6419 346.7746 13.72379417396375
Epoch (UTC): 16 August 2017 13:52:37
Eccentricity: 0.0115343
inclination: 69.9629°
perigee height: 906 km
apogee height: 1076 km
right ascension of ascending node: 32.1944°
argument of perigee: 13.6419°
revolutions per day: 13.72379417
mean anomaly at epoch: 346.7746°
orbit number at epoch: 39637

The dashed part of the orbit path shows where the satellite is in the earth's shadow,  

DLR